[Date Prev][Date Next][Thread Prev][Thread Next] - [Date Index][Thread Index][Author Index]

2 Line ISS Keps 10-20



ISS
1 25544U 98067A   03293.21781250  .00016276  00000-0  18401-3 0  6708
2 25544  51.6293 110.0660 0006524  57.3188 286.2669 15.62594754280536


----
Via the sarex mailing list at AMSAT.ORG courtesy of AMSAT-NA.
To unsubscribe, send "unsubscribe sarex" to Majordomo@amsat.org



AMSAT Top AMSAT Home